This is the latest recevied weather packets stored in our database for station/object CA3DPI. If no packets are shown the sender has not sent any weather packets the latest 10 day(s).
| Time | Temp. | Humidity | Pressure | Rain* | Wind** | Luminosity | Snow |
|---|---|---|---|---|---|---|---|
| 1777303508 | 28.33° C | 28% | 1021.8 hPa | - | - | - | - |
| 1777302908 | 26.67° C | 31% | 1021.8 hPa | - | - | - | - |
| 1777302308 | 25° C | 30% | 1021.8 hPa | - | - | - | - |
| 1777301708 | 23.89° C | 31% | 1021.8 hPa | - | - | - | - |
| 1777301107 | 23.33° C | 31% | 1021.9 hPa | - | - | - | - |
| 1777300507 | 22.22° C | 34% | 1021.9 hPa | - | - | - | - |
| 1777299907 | 20° C | 36% | 1021.9 hPa | - | - | - | - |
| 1777299307 | 19.44° C | 37% | 1021.8 hPa | - | - | - | - |
| 1777298707 | 19.44° C | 37% | 1022 hPa | - | - | - | - |
| 1777298107 | 18.89° C | 37% | 1022 hPa | - | - | - | - |
| 1777297506 | 18.33° C | 38% | 1022.1 hPa | - | - | - | - |
| 1777296906 | 17.22° C | 39% | 1022.2 hPa | - | - | - | - |
| 1777296306 | 15.56° C | 40% | 1022 hPa | - | - | - | - |
| 1777295706 | 15° C | 41% | 1022 hPa | - | - | - | - |
| 1777295106 | 14.44° C | 42% | 1021.9 hPa | - | - | - | - |
| 1777294545 | 13.89° C | 41% | 1022 hPa | - | - | - | - |
| 1777294506 | 13.89° C | 41% | 1022 hPa | - | - | - | - |
| 1777293905 | 13.33° C | 42% | 1022.2 hPa | - | - | - | - |
| 1777293305 | 12.78° C | 42% | 1022 hPa | - | - | - | - |
| 1777292705 | 12.78° C | 42% | 1022.1 hPa | - | - | - | - |
| 1777292105 | 12.78° C | 43% | 1022 hPa | - | - | - | - |
| 1777291505 | 11.67° C | 47% | 1022 hPa | - | - | - | - |
| 1777290905 | 10° C | 49% | 1021.9 hPa | - | - | - | - |
| 1777290304 | 8.33° C | 52% | 1021.9 hPa | - | - | - | - |
| 1777289704 | 7.22° C | 50% | 1021.7 hPa | - | - | - | - |
* Rain since midnight (hover to see other rain measurements)
** Current wind speed in m/s (hover to see current wind gust speed)